| time (UTC) | temp C | wind direction | speed KPH | gust KPH | rain 1hr cm | rain 24hr cm | rain mn cm | humidity % | barometer mb |
| 20260510213031 | 13 | 5 | 3.2 | 8.0 | 0.00 | 0.00 | 0.00 | 36 | 1019.6 |
| 20260510211629 | 13 | 5 | 1.6 | 14.5 | 0.00 | 0.00 | 0.00 | 33 | 1019.6 |
| 20260510210047 | 15 | 5 | 6.4 | 14.5 | 0.00 | 0.00 | 0.00 | 31 | 1019.4 |
| 20260510204513 | 15 | 5 | 1.6 | 16.1 | 0.00 | 0.00 | 0.00 | 32 | 1019.5 |
| 20260510203107 | 15 | 5 | 4.8 | 12.9 | 0.00 | 0.00 | 0.00 | 35 | 1019.5 |
| 20260510201526 | 14 | 5 | 3.2 | 14.5 | 0.00 | 0.00 | 0.00 | 33 | 1019.5 |
| 20260510200125 | 14 | 5 | 4.8 | 16.1 | 0.00 | 0.00 | 0.00 | 32 | 1019.6 |
| 20260510194538 | 14 | 5 | 4.8 | 12.9 | 0.00 | 0.00 | 0.00 | 35 | 1019.5 |
| 20260510193130 | 14 | 5 | 4.8 | 17.7 | 0.00 | 0.00 | 0.00 | 35 | 1019.5 |
| 20260510191551 | 13 | 5 | 3.2 | 12.9 | 0.00 | 0.00 | 0.00 | 38 | 1019.5 |
| 20260510190012 | 13 | 5 | 3.2 | 16.1 | 0.00 | 0.00 | 0.00 | 37 | 1019.4 |
| 20260510184607 | 13 | 5 | 3.2 | 12.9 | 0.00 | 0.00 | 0.00 | 39 | 1019.4 |
| 20260510183015 | 13 | 5 | 4.8 | 14.5 | 0.00 | 0.00 | 0.00 | 38 | 1019.5 |
| 20260510181610 | 13 | 5 | 4.8 | 16.1 | 0.00 | 0.00 | 0.00 | 38 | 1019.6 |
| 20260510180017 | 12 | 5 | 4.8 | 14.5 | 0.00 | 0.00 | 0.00 | 39 | 1019.4 |
| 20260510174610 | 12 | 5 | 6.4 | 19.3 | 0.00 | 0.00 | 0.00 | 40 | 1019.2 |
| 20260510173037 | 12 | 5 | 6.4 | 19.3 | 0.00 | 0.00 | 0.00 | 40 | 1019.2 |
| 20260510171622 | 12 | 5 | 6.4 | 17.7 | 0.00 | 0.00 | 0.00 | 40 | 1019.0 |
| 20260510170109 | 12 | 5 | 4.8 | 16.1 | 0.00 | 0.00 | 0.00 | 39 | 1019.2 |
| 20260510164502 | 12 | 5 | 4.8 | 12.9 | 0.00 | 0.00 | 0.00 | 39 | 1019.2 |
| 20260510163055 | 12 | 5 | 3.2 | 9.7 | 0.00 | 0.00 | 0.00 | 43 | 1019.2 |
| 20260510161520 | 12 | 5 | 4.8 | 9.7 | 0.00 | 0.00 | 0.00 | 42 | 1019.1 |
| 20260510160115 | 11 | 360 | 4.8 | 14.5 | 0.00 | 0.00 | 0.00 | 42 | 1019.0 |
| 20260510154535 | 11 | 5 | 3.2 | 17.7 | 0.00 | 0.00 | 0.00 | 43 | 1018.8 |
| 20260510153130 | 10 | 5 | 3.2 | 9.7 | 0.00 | 0.00 | 0.00 | 46 | 1018.7 |
| 20260510151553 | 10 | 5 | 4.8 | 12.9 | 0.00 | 0.00 | 0.00 | 50 | 1018.8 |
| 20260510150013 | 9 | 5 | 4.8 | 16.1 | 0.00 | 0.00 | 0.00 | 51 | 1018.8 |
| 20260510144609 | 8 | 5 | 4.8 | 14.5 | 0.00 | 0.00 | 0.00 | 52 | 1018.7 |
| 20260510143024 | 8 | 5 | 3.2 | 8.0 | 0.00 | 0.00 | 0.00 | 59 | 1018.7 |
| 20260510141616 | 7 | 5 | 3.2 | 9.7 | 0.00 | 0.00 | 0.00 | 61 | 1018.6 |
| 20260510140039 | 6 | 5 | 4.8 | 12.9 | 0.00 | 0.00 | 0.00 | 69 | 1018.6 |
| 20260510134627 | 6 | 5 | 3.2 | 14.5 | 0.00 | 0.00 | 0.00 | 71 | 1018.6 |
| 20260510133058 | 5 | 5 | 1.6 | 6.4 | 0.00 | 0.00 | 0.00 | 74 | 1018.6 |
| 20260510131511 | 5 | 5 | 1.6 | 4.8 | 0.00 | 0.00 | 0.00 | 75 | 1018.5 |
| 20260510130104 | 5 | 5 | 1.6 | 6.4 | 0.00 | 0.00 | 0.00 | 75 | 1018.5 |
| 20260510124531 | 4 | 5 | 1.6 | 4.8 | 0.00 | 0.00 | 0.00 | 77 | 1018.4 |
| 20260510123127 | 3 | 5 | 0.0 | 1.6 | 0.00 | 0.00 | 0.00 | 78 | 1018.1 |
| 20260510121548 | 3 | 5 | 0.0 | 0.0 | 0.00 | 0.00 | 0.00 | 80 | 1018.0 |
| 20260510120026 | 3 | 5 | 0.0 | 0.0 | 0.00 | 0.00 | 0.00 | 80 | 1017.8 |
| 20260510114609 | 3 | 5 | 0.0 | 1.6 | 0.00 | 0.03 | 0.00 | 81 | 1017.5 |
| 20260510113026 | 2 | 5 | 0.0 | 0.0 | 0.00 | 0.03 | 0.00 | 80 | 1017.4 |
| 20260510111619 | 2 | 5 | 0.0 | 0.0 | 0.00 | 0.03 | 0.00 | 80 | 1017.2 |
| 20260510110042 | 2 | 5 | 0.0 | 1.6 | 0.00 | 0.03 | 0.00 | 80 | 1017.1 |
| 20260510104618 | 2 | 5 | 0.0 | 1.6 | 0.00 | 0.13 | 0.00 | 79 | 1016.9 |
| 20260510103050 | 2 | 5 | 0.0 | 1.6 | 0.00 | 0.13 | 0.00 | 78 | 1016.6 |
| 20260510101521 | 2 | 5 | 0.0 | 1.6 | 0.00 | 0.13 | 0.00 | 77 | 1016.4 |
| 20260510100105 | 2 | 5 | 0.0 | 1.6 | 0.00 | 0.13 | 0.00 | 76 | 1016.1 |
| 20260510094527 | 2 | 5 | 0.0 | 1.6 | 0.00 | 0.15 | 0.00 | 77 | 1015.9 |
| 20260510093120 | 2 | 5 | 0.0 | 1.6 | 0.00 | 0.15 | 0.00 | 78 | 1015.9 |
| 20260510091537 | 2 | 5 | 0.0 | 1.6 | 0.00 | 0.15 | 0.00 | 78 | 1015.7 |
| 20260510090134 | 2 | 5 | 0.0 | 3.2 | 0.00 | 0.15 | 0.00 | 77 | 1015.7 |
| 20260510084549 | 1 | 5 | 0.0 | 1.6 | 0.00 | 0.15 | 0.00 | 77 | 1015.3 |
| 20260510083011 | 1 | 5 | 0.0 | 1.6 | 0.00 | 0.15 | 0.00 | 75 | 1015.1 |
| 20260510081609 | 1 | 5 | 1.6 | 3.2 | 0.00 | 0.15 | 0.00 | 74 | 1014.7 |
| 20260510080032 | 1 | 5 | 0.0 | 1.6 | 0.00 | 0.15 | 0.00 | 73 | 1014.8 |
| 20260510074624 | 2 | 5 | 0.0 | 3.2 | 0.00 | 0.15 | 0.00 | 72 | 1014.6 |
| 20260510073058 | 2 | 5 | 0.0 | 1.6 | 0.00 | 0.15 | 0.00 | 71 | 1014.6 |
| 20260510071544 | 2 | 5 | 0.0 | 1.6 | 0.00 | 0.15 | 0.00 | 70 | 1014.5 |
| 20260510070135 | 2 | 5 | 0.0 | 3.2 | 0.00 | 0.15 | 0.00 | 70 | 1014.5 |
| 20260510064553 | 2 | 5 | 1.6 | 3.2 | 0.00 | 0.15 | 0.00 | 68 | 1014.4 |
| 20260510063017 | 3 | 5 | 0.0 | 0.0 | 0.00 | 0.15 | 0.00 | 66 | 1014.3 |
| 20260510061613 | 3 | 5 | 0.0 | 1.6 | 0.00 | 0.15 | 0.00 | 65 | 1014.3 |
| 20260510060032 | 3 | 5 | 0.0 | 1.6 | 0.00 | 0.15 | 0.00 | 63 | 1014.3 |
| 20260510054623 | 4 | 5 | 0.0 | 1.6 | 0.00 | 0.15 | 0.00 | 61 | 1014.2 |
| 20260510053035 | 5 | 5 | 0.0 | 1.6 | 0.00 | 0.15 | 0.00 | 61 | 1014.1 |
| 20260510051631 | 5 | 5 | 0.0 | 1.6 | 0.00 | 0.15 | 0.00 | 58 | 1014.0 |
| 20260510050045 | 5 | 5 | 0.0 | 1.6 | 0.00 | 0.15 | 0.00 | 56 | 1013.8 |
| 20260510044523 | 6 | 5 | 0.0 | 1.6 | 0.00 | 0.15 | 0.15 | 55 | 1013.7 |
| 20260510043110 | 7 | 5 | 0.0 | 0.0 | 0.00 | 0.15 | 0.15 | 52 | 1013.7 |
| 20260510041530 | 7 | 5 | 0.0 | 1.6 | 0.00 | 0.15 | 0.15 | 51 | 1013.6 |
| 20260510040125 | 8 | 5 | 0.0 | 1.6 | 0.00 | 0.15 | 0.15 | 49 | 1013.6 |
| 20260510034547 | 8 | 5 | 0.0 | 3.2 | 0.00 | 0.15 | 0.15 | 47 | 1013.4 |
| 20260510033038 | 8 | 5 | 0.0 | 4.8 | 0.00 | 0.15 | 0.15 | 45 | 1013.3 |
| 20260510031633 | 9 | 5 | 0.0 | 4.8 | 0.00 | 0.15 | 0.15 | 44 | 1013.1 |
| 20260510030052 | 9 | 5 | 1.6 | 9.7 | 0.00 | 0.15 | 0.15 | 43 | 1012.8 |
| 20260510024513 | 10 | 5 | 1.6 | 4.8 | 0.00 | 0.15 | 0.15 | 42 | 1012.4 |
| 20260510023108 | 10 | 360 | 1.6 | 9.7 | 0.00 | 0.15 | 0.15 | 41 | 1012.2 |
| 20260510021526 | 10 | 5 | 0.0 | 6.4 | 0.00 | 0.15 | 0.15 | 40 | 1011.8 |
| 20260510020119 | 10 | 5 | 1.6 | 8.0 | 0.00 | 0.15 | 0.15 | 40 | 1011.5 |
| 20260510014520 | 11 | 5 | 1.6 | 9.7 | 0.00 | 0.15 | 0.15 | 38 | 1011.2 |
| 20260510013123 | 11 | 5 | 1.6 | 12.9 | 0.00 | 0.15 | 0.15 | 38 | 1010.9 |
| 20260510011546 | 11 | 5 | 1.6 | 8.0 | 0.00 | 0.15 | 0.15 | 36 | 1010.6 |
| 20260510010008 | 11 | 360 | 1.6 | 12.9 | 0.00 | 0.15 | 0.15 | 35 | 1010.3 |
| 20260510004607 | 12 | 5 | 3.2 | 19.3 | 0.00 | 0.15 | 0.15 | 34 | 1010.1 |
| 20260510003028 | 12 | 5 | 3.2 | 17.7 | 0.00 | 0.15 | 0.15 | 33 | 1010.0 |
| 20260510001620 | 12 | 5 | 1.6 | 12.9 | 0.00 | 0.15 | 0.15 | 34 | 1009.8 |
| 20260510000039 | 12 | 5 | 8.0 | 22.5 | 0.00 | 0.15 | 0.15 | 33 | 1009.7 |
| 20260509234630 | 13 | 5 | 4.8 | 16.1 | 0.00 | 0.15 | 0.15 | 32 | 1009.6 |
| 20260509233048 | 13 | 5 | 3.2 | 20.9 | 0.00 | 0.15 | 0.15 | 32 | 1009.3 |
| 20260509231509 | 13 | 5 | 4.8 | 12.9 | 0.00 | 0.15 | 0.15 | 33 | 1009.2 |
| 20260509224527 | 13 | 5 | 4.8 | 17.7 | 0.00 | 0.15 | 0.15 | 32 | 1008.9 |
| 20260509223107 | 13 | 5 | 3.2 | 19.3 | 0.00 | 0.15 | 0.15 | 33 | 1008.9 |
| 20260509221533 | 13 | 5 | 6.4 | 17.7 | 0.00 | 0.15 | 0.15 | 33 | 1008.6 |
| 20260509220117 | 13 | 5 | 6.4 | 16.1 | 0.00 | 0.15 | 0.15 | 33 | 1008.5 |
| 20260509214546 | 13 | 5 | 4.8 | 20.9 | 0.00 | 0.15 | 0.15 | 33 | 1008.5 |